Location: Unspecified
(40.5863°N, 0.0000°E)
Time: 05:58:55
(UTC+00:00)

Meteor 1-5 Rocket - Visible Passes

Search period start: 05 April 2026 00:00
Search period end: 15 April 2026 00:00
Orbit: 787 x 914 km, 81.2° (Epoch: 29 March)

Date Brightness Start Highest point End Pass type
(mag) Time Alt. Az. Time Alt. Az. Time Alt. Az.
5 Apr 6.0 02:01:42 10° NNE 02:05:58 24° ENE 02:07:05 23° E visible
5 Apr 4.5 03:44:07 10° NNW 03:48:59 39° W 03:49:01 39° W visible
6 Apr 6.1 01:49:44 10° NNE 01:53:49 22° ENE 01:54:26 22° E visible
6 Apr 4.5 03:31:56 10° NNW 03:36:24 41° WNW 03:36:24 41° WNW visible
7 Apr 6.2 01:37:46 10° NNE 01:41:40 20° ENE 01:41:55 20° ENE visible
7 Apr 4.6 03:19:46 10° NNW 03:23:53 42° WNW 03:23:53 42° WNW visible
8 Apr 6.3 01:25:49 10° NNE 01:29:28 19° ENE 01:29:28 19° ENE visible
8 Apr 4.7 03:07:36 10° NNW 03:11:26 42° NW 03:11:26 42° NW visible
9 Apr 6.4 01:13:53 10° NNE 01:17:06 17° ENE 01:17:06 17° ENE visible
9 Apr 4.8 02:55:27 10° NNW 02:59:04 41° NW 02:59:04 41° NW visible
10 Apr 6.5 01:01:59 10° NNE 01:04:45 16° ENE 01:04:45 16° ENE visible
10 Apr 4.9 02:43:19 10° NNW 02:46:45 40° NNW 02:46:45 40° NNW visible
11 Apr 6.6 00:50:07 10° NNE 00:52:28 14° ENE 00:52:28 14° ENE visible
11 Apr 5.0 02:31:10 10° NNW 02:34:27 38° NNW 02:34:27 38° NNW visible
12 Apr 6.7 00:38:19 10° NE 00:40:14 13° ENE 00:40:14 13° ENE visible
12 Apr 5.1 02:19:02 10° NNW 02:22:12 37° NNW 02:22:12 37° NNW visible
13 Apr 6.8 00:26:35 10° NE 00:28:00 12° ENE 00:28:00 12° ENE visible
13 Apr 5.3 02:06:54 10° NNW 02:09:59 36° NNW 02:09:59 36° NNW visible
14 Apr 6.8 00:15:01 10° NE 00:15:49 11° NE 00:15:49 11° NE visible
14 Apr 5.3 01:54:47 10° N 01:57:48 35° N 01:57:48 35° N visible
